Location: Bęczków
(50.8761°N, 20.8028°E)
Time: 06:35:19
(UTC+02:00)

Envisat - Pass Details

Date: 27 March 2019
Orbit: 764 x 766 km, 98.2° (Epoch: 21 April)

Event Time Altitude Azimuth Distance (km) Brightness Sun altitude
Rises 19:54:51 0° 226° (SW) 3,226 6.5 -17.9°
Reaches altitude 10° 19:59:25 10° 265° (W) 2,308 6.3 -18.6°
Maximum altitude 20:00:29 11° 277° (W) 2,268 6.4 -18.7°
Drops below altitude 10° 20:01:33 10° 289° (WNW) 2,311 6.7 -18.9°
Sets 20:06:10 0° 328° (NNW) 3,245 7.3 -19.5°
